Track ORBCOMM FM116 now! 10-day predictions ORBCOMM FM116 is classified as:
1 41189U 15081L 23080.44674387 .00001083 00000-0 28413-3 0 9997 2 41189 47.0015 93.2654 0002716 262.6484 97.4092 14.55531430386288